Wind_Speed
48 48 48 50 50 52 50 46 43 46 48 51 54 51 47 52 56 57 57 58 56 53 56 58 60 59 59 61 62 63 64 64 64 62 62 62 64 60 58 60 59 55 51
46 44 42 41 40 42 45 46 47 42 44 50 49 45 45 46 50 55 58 54 54 54 56 59 60 62 62 64 66 67 66 66 66 63 64 66 65 63 63 62 60 58 55
22 25 28 30 35 40 40 47 44 51 53 56 52 40 43 48 50 49 51 52 53 55 58 60 62 65 66 67 69 70 71 71 70 70 68 68 66 67 68 66 62 59 62
20 27 31 39 32 38 39 44 47 46 38 43 41 40 42 43 44 47 50 53 56 59 61 63 65 67 68 69 69 69 69 68 68 66 65 65 67 68 69 69 68 66 66
35 39 40 36 36 34 29 32 40 39 38 38 37 39 43 47 50 53 56 59 61 63 63 62 62 62 63 64 64 65 67 67 66 64 62 60 60 61 61 60 60 62 62
7 10 12 15 16 20 25 28 29 31 33 35 39 44 48 51 55 58 59 59 58 56 56 59 62 64 64 65 66 67 67 67 67 66 64 64 64 65 63 62 61 61 59
7 11 14 16 21 26 30 32 34 37 39 42 47 52 53 53 49 48 49 52 54 54 55 57 59 60 61 63 65 68 70 72 71 70 68 64 61 59 59 58 59 61 61
12 16 18 22 25 27 30 34 36 40 44 46 49 47 43 45 48 48 49 51 53 53 52 52 51 51 52 56 59 61 63 64 64 63 61 58 58 56 56 57 59 58 57
17 19 21 22 25 29 33 37 40 42 42 40 36 39 40 42 43 42 41 39 39 40 39 37 34 31 36 39 38 37 37 40 41 38 39 41 44 48 51 52 51 51 48
18 20 22 25 28 33 36 37 36 31 30 32 28 30 34 33 31 30 31 30 28 27 29 29 30 31 31 31 31 31 29 28 28 28 29 32 35 38 40 41 42 42 43
16 18 21 27 30 31 31 30 30 29 27 23 22 27 27 27 26 24 22 23 24 22 22 26 31 32 31 30 32 33 30 25 22 20 21 23 23 24 26 28 32 36 36
15 19 24 27 26 23 26 28 28 23 24 20 23 22 23 22 21 19 24 22 24 26 27 29 26 29 31 32 34 35 34 27 25 24 26 23 20 23 25 27 30 34 35
13 19 24 23 20 22 26 28 20 22 19 15 16 17 19 21 19 20 27 24 24 27 30 28 32 33 31 33 39 38 31 31 25 23 20 24 22 21 25 28 27 25 29
13 20 22 18 20 21 27 19 19 17 13 12 15 15 18 19 21 24 25 26 24 27 28 34 29 31 33 35 37 37 32 26 23 16 14 14 14 17 25 26 18 13 17
15 21 20 17 20 20 19 16 16 11 12 15 16 17 17 17 21 19 21 21 21 27 32 33 39 37 37 38 36 40 37 30 27 21 16 11 14 19 20 14 7 8 14
15 22 19 16 18 20 14 12 11 7 11 14 21 20 15 16 18 17 20 21 21 27 32 35 36 37 36 44 37 40 40 32 32 29 23 19 17 17 14 9 2 3 11
15 21 21 16 17 17 10 10 9 7 7 8 16 20 18 16 14 15 20 20 22 27 31 30 33 37 39 40 40 38 40 42 35 35 29 29 28 24 20 17 10 10 11
14 19 19 16 17 16 10 9 7 7 10 12 13 18 17 14 14 14 16 16 20 23 24 28 31 33 37 36 38 35 38 41 42 40 44 38 35 34 29 25 19 16 15
12 16 16 15 18 17 13 10 12 11 11 12 13 14 16 14 11 12 12 13 18 19 23 24 26 29 33 35 35 37 35 35 38 43 45 40 36 38 33 24 22 19 21
11 15 15 14 17 17 16 10 13 15 14 12 13 15 15 13 10 8 10 12 15 18 20 22 25 26 28 29 31 31 33 37 34 38 36 38 36 35 33 28 21 15 12
10 16 15 15 16 17 16 13 12 12 11 10 10 9 11 14 13 13 13 13 14 19 21 20 24 24 23 24 25 26 29 31 31 29 27 29 28 26 24 23 24 16 15
13 14 14 15 16 17 17 15 12 13 13 13 12 11 8 9 11 13 15 13 13 17 15 17 22 21 22 20 21 22 22 23 27 28 27 27 29 28 30 29 23 19 14
17 15 14 15 16 18 17 17 14 12 12 13 13 13 13 11 11 11 12 13 13 14 15 16 19 21 20 21 18 17 19 20 20 20 22 23 24 25 25 26 28 22 18
20 18 17 15 17 19 18 17 15 13 10 10 11 12 13 13 13 12 12 12 13 15 15 16 17 18 19 19 18 17 15 15 16 17 18 17 18 19 20 21 22 23 24
20 19 20 19 19 19 18 17 16 14 11 8 8 8 9 10 11 12 10 10 10 12 14 16 18 19 19 19 17 16 15 14 14 14 15 15 15 14 14 15 16 16 16
23 21 22 22 23 21 19 18 17 16 14 12 11 10 10 9 9 10 10 10 10 11 12 14 14 15 16 17 18 19 18 15 13 14 14 12 12 12 12 10 9 9 10
Wind_Direction
253 250 253 257 258 259 264 262 267 267 268 272 273 275 281 285 284 285 284 287 290 292 289 286 284 283 284 283 283 284 281 281 280 282 279 276 276 280 276 273 272 273 274
255 254 254 255 259 265 262 264 263 268 274 286 291 280 287 286 286 285 284 283 282 283 283 284 284 283 283 282 281 281 281 280 279 278 276 275 276 276 274 273 273 277 262
248 255 259 264 262 264 265 268 266 278 272 271 291 287 284 281 281 283 285 286 285 285 284 283 283 283 282 282 281 281 280 279 279 279 277 276 275 274 273 271 269 273 262
260 257 260 259 263 278 262 261 276 283 285 279 281 282 284 283 286 286 286 287 288 287 287 287 286 284 283 283 283 283 282 280 279 277 276 276 276 273 272 271 268 266 263
248 253 261 246 261 267 270 277 274 273 278 282 289 292 292 292 292 290 290 290 290 289 288 289 288 287 286 284 283 282 281 280 279 277 275 273 272 271 272 270 269 268 266
283 287 289 284 278 272 272 277 285 288 291 292 293 296 297 296 295 294 290 288 288 288 288 288 289 289 289 287 285 283 281 279 277 275 273 272 270 270 268 268 269 269 268
250 248 267 287 285 281 285 294 296 295 294 294 295 297 296 297 293 295 296 296 295 296 294 292 291 290 289 287 285 282 278 275 272 271 270 269 268 269 269 270 268 265 264
278 281 292 302 301 300 297 295 294 295 295 298 302 298 301 304 303 301 300 300 301 301 302 303 304 304 300 296 292 287 283 278 275 274 273 273 273 273 271 269 267 266 266
301 308 305 305 308 308 305 301 299 301 302 303 308 310 309 307 307 309 312 315 315 315 312 311 314 318 321 315 314 314 306 290 278 272 272 268 266 267 268 271 272 269 268
307 317 322 321 316 312 309 310 311 314 317 315 319 325 327 326 328 330 330 329 331 333 332 330 326 328 329 328 329 329 323 313 301 292 285 281 278 274 273 271 268 266 263
317 322 323 323 322 318 319 321 321 319 314 320 323 330 344 347 345 346 358 1 1 1 358 349 341 341 340 336 337 333 326 314 313 304 304 295 287 285 282 279 273 267 260
328 331 328 322 320 324 324 323 321 320 326 325 329 338 346 351 360 357 352 356 350 351 353 352 357 1 357 348 341 334 328 318 307 304 288 290 296 295 283 292 284 266 254
325 332 335 322 320 326 328 326 327 334 337 360 3 11 14 15 12 13 9 7 10 10 6 8 9 6 2 358 352 350 340 334 317 309 299 283 287 298 296 300 293 269 247
328 334 341 326 319 326 331 331 333 343 359 15 16 10 5 7 1 0 3 5 8 20 26 21 13 11 9 6 4 4 3 355 347 349 340 327 314 313 308 310 296 261 230
340 343 339 326 315 329 332 333 332 348 9 5 5 0 356 4 7 5 6 357 11 20 21 22 19 13 14 12 12 14 16 21 23 18 9 2 329 322 323 327 309 228 197
340 349 335 317 314 332 330 329 335 342 358 5 30 12 354 358 354 2 11 2 15 14 17 19 17 18 23 20 22 22 27 27 29 25 20 14 4 358 357 1 31 165 185
335 350 336 316 315 334 322 320 332 342 346 345 360 12 9 9 12 14 5 7 23 17 23 23 19 19 21 21 24 29 36 39 35 40 41 42 36 35 35 33 70 99 122
337 350 339 315 313 330 316 288 308 332 321 315 325 350 3 10 16 11 8 19 23 18 16 18 19 20 22 23 25 34 39 41 41 47 42 43 43 45 50 58 60 63 98
333 339 334 313 309 324 325 281 291 308 313 311 324 341 346 347 355 8 3 9 9 9 10 14 20 24 26 25 29 32 37 41 41 43 42 44 48 47 50 64 61 81 92
327 336 327 310 305 318 329 297 283 296 307 308 312 318 323 326 345 347 342 344 344 353 359 10 17 24 27 29 29 33 35 40 44 35 38 47 40 47 44 45 57 78 81
322 337 330 307 298 311 323 317 289 288 300 314 316 315 313 308 315 320 334 325 335 344 358 10 12 6 12 24 31 29 35 42 47 44 46 49 46 56 55 45 48 71 66
303 319 318 309 293 301 309 320 306 288 289 297 304 313 322 328 321 331 334 323 318 333 349 356 6 13 12 15 21 27 29 31 39 44 46 51 52 56 55 54 59 59 60
292 300 299 308 287 291 294 306 318 311 293 292 295 300 308 310 312 317 323 320 313 314 330 336 352 358 4 7 9 13 18 20 23 28 35 40 49 53 54 54 50 55 61
285 290 283 299 288 283 282 291 306 312 306 299 292 295 300 304 310 317 322 323 324 323 330 336 342 346 347 349 354 358 358 3 8 14 18 26 35 41 42 45 50 55 59
273 280 281 280 276 273 274 277 289 295 299 298 295 300 301 299 302 314 325 324 327 330 332 335 337 336 339 344 347 342 343 344 346 353 360 6 10 17 28 35 37 44 54
264 267 274 272 272 266 265 267 277 281 283 288 296 305 311 317 321 328 334 340 343 346 346 344 343 343 348 350 352 354 348 336 333 334 337 340 341 347 350 358 18 30 33
Height
5764 5766 5769 5771 5771 5772 5773 5775 5775 5776 5773 5772 5772 5768 5765 5763 5759 5755 5752 5748 5744 5740 5736 5732 5728 5723 5720 5718 5714 5712 5709 5706 5706 5710 5703 5698 5697 5696 5697 5699 5700 5702 5701
5756 5756 5759 5761 5762 5764 5764 5765 5765 5766 5764 5763 5758 5756 5754 5750 5747 5742 5739 5734 5730 5725 5722 5718 5713 5708 5705 5700 5696 5694 5692 5689 5687 5691 5688 5684 5680 5679 5680 5680 5681 5681 5682
5750 5753 5754 5754 5756 5758 5759 5757 5754 5756 5755 5752 5750 5745 5743 5740 5737 5731 5726 5722 5717 5712 5707 5702 5698 5692 5688 5683 5679 5676 5671 5667 5665 5665 5667 5663 5658 5659 5659 5659 5663 5664 5665
5746 5748 5749 5749 5750 5751 5752 5751 5749 5748 5747 5745 5741 5736 5732 5729 5725 5719 5714 5709 5703 5698 5692 5686 5680 5674 5669 5664 5660 5655 5651 5647 5644 5644 5643 5639 5638 5637 5637 5638 5640 5641 5644
5744 5744 5743 5745 5745 5744 5742 5743 5743 5741 5739 5736 5730 5726 5722 5717 5713 5707 5700 5694 5688 5681 5674 5667 5661 5656 5649 5644 5639 5634 5630 5627 5625 5623 5623 5621 5620 5618 5617 5618 5618 5618 5622
5738 5739 5739 5740 5742 5741 5741 5740 5735 5732 5730 5726 5721 5717 5712 5705 5699 5692 5685 5678 5671 5665 5659 5653 5646 5639 5633 5626 5620 5614 5609 5605 5602 5600 5601 5600 5600 5599 5599 5600 5600 5600 5603
5739 5741 5740 5739 5738 5736 5733 5731 5728 5726 5722 5717 5711 5705 5698 5690 5683 5675 5669 5663 5656 5649 5642 5636 5629 5621 5614 5607 5599 5592 5586 5581 5578 5577 5578 5578 5578 5579 5579 5581 5581 5583 5585
5737 5737 5734 5733 5732 5730 5729 5726 5721 5717 5711 5704 5697 5690 5683 5677 5669 5661 5653 5646 5639 5632 5626 5619 5612 5604 5595 5587 5579 5570 5563 5557 5554 5554 5557 5560 5560 5561 5560 5560 5562 5564 5566
5732 5730 5729 5729 5727 5725 5721 5716 5710 5703 5698 5692 5686 5680 5673 5665 5657 5650 5642 5634 5628 5621 5615 5608 5603 5596 5587 5578 5567 5556 5546 5540 5538 5539 5541 5542 5542 5542 5541 5543 5545 5545 5549
5727 5726 5725 5723 5720 5715 5709 5704 5697 5691 5688 5684 5678 5672 5664 5656 5649 5642 5635 5628 5622 5616 5611 5605 5598 5590 5580 5570 5560 5551 5543 5537 5533 5531 5530 5530 5530 5530 5529 5529 5529 5530 5532
5725 5724 5721 5717 5712 5707 5701 5696 5691 5687 5682 5678 5672 5666 5660 5653 5646 5640 5635 5629 5623 5617 5610 5603 5595 5586 5576 5566 5557 5548 5540 5534 5529 5525 5523 5521 5520 5519 5518 5517 5516 5516 5518
5721 5719 5715 5710 5705 5701 5697 5692 5687 5682 5677 5673 5668 5663 5657 5651 5646 5641 5635 5630 5624 5616 5609 5601 5592 5583 5574 5564 5555 5545 5535 5528 5524 5520 5517 5515 5513 5511 5509 5507 5504 5503 5505
5717 5714 5710 5705 5701 5696 5692 5687 5682 5678 5674 5670 5665 5661 5656 5651 5645 5641 5636 5630 5623 5616 5608 5599 5591 5583 5574 5564 5553 5540 5530 5521 5516 5513 5510 5507 5507 5504 5501 5497 5492 5490 5493
5712 5709 5704 5700 5696 5693 5687 5683 5679 5676 5672 5668 5664 5660 5656 5651 5646 5641 5635 5630 5625 5617 5610 5602 5593 5585 5575 5565 5554 5541 5529 5518 5511 5508 5505 5503 5501 5499 5495 5489 5484 5483 5486
5707 5703 5698 5695 5692 5688 5683 5680 5677 5674 5671 5667 5664 5659 5655 5651 5647 5642 5637 5633 5626 5620 5612 5605 5596 5588 5578 5566 5555 5544 5531 5522 5515 5509 5505 5502 5500 5495 5489 5485 5482 5482 5485
5702 5697 5693 5690 5688 5684 5680 5678 5675 5672 5670 5668 5663 5659 5655 5651 5647 5643 5638 5633 5628 5621 5614 5607 5600 5591 5581 5571 5559 5550 5538 5529 5521 5514 5508 5504 5500 5494 5489 5485 5484 5485 5488
5697 5692 5690 5687 5684 5681 5677 5675 5673 5671 5669 5667 5663 5660 5656 5651 5647 5643 5639 5634 5628 5622 5617 5611 5603 5594 5585 5575 5566 5557 5547 5537 5529 5522 5515 5509 5503 5498 5494 5490 5490 5491 5494
5692 5688 5685 5683 5680 5678 5675 5674 5672 5670 5667 5665 5663 5660 5656 5652 5648 5644 5639 5635 5629 5624 5619 5613 5606 5598 5590 5581 5573 5564 5556 5548 5540 5532 5525 5518 5512 5507 5503 5500 5499 5500 5502
5686 5684 5681 5679 5676 5675 5672 5670 5668 5668 5666 5663 5661 5658 5655 5651 5648 5643 5639 5635 5630 5626 5621 5614 5608 5601 5594 5587 5579 5572 5564 5557 5550 5543 5536 5529 5525 5520 5516 5514 5512 5512 5513
5682 5679 5677 5675 5673 5671 5669 5666 5665 5664 5662 5660 5658 5656 5653 5650 5645 5642 5638 5635 5631 5627 5622 5617 5611 5604 5598 5592 5586 5578 5572 5565 5558 5554 5549 5542 5537 5533 5530 5526 5523 5523 5523
5677 5675 5673 5672 5670 5669 5666 5663 5662 5661 5660 5658 5656 5653 5651 5648 5645 5642 5638 5635 5631 5626 5622 5618 5613 5607 5602 5596 5590 5585 5578 5573 5568 5563 5557 5553 5547 5543 5538 5535 5532 5530 5530
5672 5671 5670 5668 5666 5665 5664 5661 5659 5658 5656 5655 5653 5650 5648 5646 5642 5639 5636 5633 5629 5626 5621 5617 5613 5608 5603 5599 5595 5589 5584 5579 5574 5570 5565 5560 5555 5551 5547 5543 5540 5539 5537
5666 5667 5665 5664 5662 5661 5660 5658 5656 5654 5652 5651 5650 5648 5645 5643 5640 5638 5634 5631 5627 5624 5620 5616 5613 5608 5605 5600 5596 5592 5588 5584 5580 5576 5571 5567 5563 5558 5555 5552 5548 5545 5543
5660 5661 5660 5659 5658 5657 5656 5655 5653 5651 5649 5648 5646 5645 5643 5640 5638 5635 5632 5629 5626 5622 5619 5615 5612 5608 5605 5601 5597 5593 5590 5587 5583 5580 5576 5572 5568 5565 5562 5558 5556 5553 5551
5654 5654 5654 5653 5652 5651 5651 5651 5650 5648 5647 5645 5643 5641 5640 5637 5635 5632 5630 5627 5624 5621 5617 5614 5610 5607 5604 5600 5596 5594 5591 5588 5584 5581 5578 5575 5572 5569 5566 5564 5561 5559 5556
5645 5646 5646 5646 5647 5646 5646 5645 5645 5644 5643 5642 5640 5638 5637 5635 5633 5630 5628 5625 5622 5619 5616 5613 5610 5606 5603 5599 5596 5593 5589 5586 5584 5581 5579 5576 5574 5571 5569 5567 5565 5563 5561